TimeCEST,TemperatureF,Dew PointF,Humidity,Sea Level PressureIn,VisibilityMPH,Wind Direction,Wind SpeedMPH,Gust SpeedMPH,PrecipitationIn,Events,Conditions,WindDirDegrees,DateUTC
12:00 AM,50.0,44.6,82,30.06,6.2,West,12.7,-,N/A,,Unknown,270,2012-10-04 22:00:00
1:00 AM,48.2,44.6,87,30.06,6.2,WSW,5.8,-,N/A,,Unknown,250,2012-10-04 23:00:00
2:00 AM,46.4,42.8,87,30.06,6.2,WSW,6.9,-,N/A,,Unknown,240,2012-10-05 00:00:00
3:00 AM,46.4,42.8,87,30.09,-9999.0,WSW,6.9,-,N/A,,Clear,240,2012-10-05 01:00:00
4:00 AM,46.4,42.8,87,30.09,-9999.0,SW,5.8,-,N/A,,Clear,230,2012-10-05 02:00:00
5:00 AM,44.6,41.0,87,30.09,-9999.0,WSW,6.9,-,N/A,,Clear,240,2012-10-05 03:00:00
6:00 AM,44.6,41.0,87,30.12,-9999.0,SSE,4.6,-,N/A,,Clear,160,2012-10-05 04:00:00
7:00 AM,42.8,41.0,93,30.12,-9999.0,SE,2.3,-,N/A,,Clear,130,2012-10-05 05:00:00
8:00 AM,44.6,41.0,87,30.09,-9999.0,ESE,4.6,-,N/A,,Clear,120,2012-10-05 06:00:00
9:00 AM,46.4,42.8,87,30.09,-9999.0,SSE,4.6,-,N/A,,Clear,160,2012-10-05 07:00:00
10:00 AM,51.8,42.8,71,30.09,-9999.0,SSE,8.1,-,N/A,,Clear,150,2012-10-05 08:00:00
11:00 AM,55.4,44.6,67,30.06,-9999.0,South,6.9,-,N/A,,Clear,190,2012-10-05 09:00:00
12:00 PM,59.0,44.6,59,30.04,-9999.0,South,8.1,-,N/A,,Clear,190,2012-10-05 10:00:00
1:00 PM,62.6,46.4,55,30.04,-9999.0,SSW,15.0,-,N/A,,Clear,210,2012-10-05 11:00:00
2:00 PM,62.6,46.4,55,30.01,-9999.0,SSW,10.4,-,N/A,,Clear,200,2012-10-05 12:00:00
3:00 PM,64.4,50.0,59,29.98,-9999.0,SSW,12.7,-,N/A,,Clear,210,2012-10-05 13:00:00
4:00 PM,64.4,50.0,59,29.95,-9999.0,SSW,11.5,-,N/A,,Clear,200,2012-10-05 14:00:00
6:00 PM,64.4,53.6,68,29.92,-9999.0,SSW,6.9,-,N/A,,Clear,200,2012-10-05 16:00:00
7:00 PM,62.6,51.8,68,29.92,-9999.0,South,5.8,-,N/A,,Clear,190,2012-10-05 17:00:00
8:00 PM,59.0,51.8,77,29.95,-9999.0,South,3.5,-,N/A,,Clear,170,2012-10-05 18:00:00
9:00 PM,57.2,51.8,82,29.95,-9999.0,SSE,5.8,-,N/A,,Clear,160,2012-10-05 19:00:00
10:00 PM,57.2,51.8,82,29.95,-9999.0,SSE,9.2,-,N/A,,Clear,160,2012-10-05 20:00:00
11:00 PM,55.4,51.8,88,29.98,-9999.0,SSE,6.9,-,N/A,,Clear,160,2012-10-05 21:00:00